When you browse on this site, cookies collect data to enhance your experience and personalize the content and advertising you see.
Visit our Privacy Policy to learn more. By continuing to use the site, you agree to this use of cookies and data.
  • In Österreich
  • Länderverzeichnis
  • Für 7 Tage
  • Wassertemperatur
  • Satellitenkarten
  • Wetterkarte
  • News
  • Widgets
  • user-avatar
    Anmelden

    Stündliche Wetter Podvoste

    Heute, 25 Mai, Samstag

    Zeit Temperatur Niederschläge Wind Luftdruck Luftfeuchtigkeit
    00:00 +15°C° 0 mm 2 m/S 744 mmHg 93%
    01:00 +15°C° 0 mm 2 m/S 744 mmHg 94%
    02:00 +14°C° 0 mm 1 m/S 744 mmHg 94%
    03:00 +14°C° 0 mm 1 m/S 744 mmHg 94%
    04:00 +14°C° 0 mm 1 m/S 744 mmHg 95%
    05:00 +14°C° 0 mm 2 m/S 744 mmHg 95%
    06:00 +16°C° 0 mm 2 m/S 744 mmHg 90%
    07:00 +17°C° 0 mm 2 m/S 744 mmHg 85%
    08:00 +19°C° 0 mm 2 m/S 744 mmHg 80%
    09:00 +20°C° 0 mm 3 m/S 744 mmHg 73%
    10:00 +21°C° 0 mm 3 m/S 744 mmHg 67%
    11:00 +22°C° 0 mm 4 m/S 744 mmHg 61%
    12:00 +23°C° 0.3 mm 4 m/S 744 mmHg 60%
    13:00 +23°C° 0.3 mm 4 m/S 744 mmHg 59%
    14:00 +23°C° 0.3 mm 4 m/S 743 mmHg 59%
    15:00 +23°C° 0.1 mm 4 m/S 743 mmHg 58%
    16:00 +23°C° 0.1 mm 4 m/S 743 mmHg 56%
    17:00 +22°C° 0.1 mm 4 m/S 743 mmHg 55%
    18:00 +21°C° 0 mm 3 m/S 743 mmHg 61%
    19:00 +19°C° 0 mm 3 m/S 743 mmHg 67%
    20:00 +17°C° 0 mm 2 m/S 743 mmHg 73%
    21:00 +16°C° 0 mm 2 m/S 744 mmHg 75%
    22:00 +15°C° 0 mm 2 m/S 744 mmHg 77%
    23:00 +14°C° 0 mm 2 m/S 744 mmHg 80%

    Morgen, 26 Mai, Sonntag

    Zeit Temperatur Niederschläge Wind Luftdruck Luftfeuchtigkeit
    00:00 +14°C° 0 mm 2 m/S 744 mmHg 83%
    01:00 +13°C° 0 mm 2 m/S 745 mmHg 86%
    02:00 +13°C° 0 mm 2 m/S 745 mmHg 90%
    03:00 +13°C° 0 mm 2 m/S 745 mmHg 91%
    04:00 +12°C° 0 mm 2 m/S 745 mmHg 93%
    05:00 +12°C° 0 mm 2 m/S 745 mmHg 94%
    06:00 +13°C° 0 mm 2 m/S 746 mmHg 85%
    07:00 +15°C° 0 mm 2 m/S 746 mmHg 77%
    08:00 +16°C° 0 mm 3 m/S 746 mmHg 68%
    09:00 +17°C° 0 mm 3 m/S 746 mmHg 64%
    10:00 +18°C° 0 mm 4 m/S 746 mmHg 61%
    11:00 +19°C° 0 mm 4 m/S 746 mmHg 57%
    12:00 +19°C° 0 mm 4 m/S 746 mmHg 57%
    13:00 +20°C° 0 mm 5 m/S 746 mmHg 57%
    14:00 +20°C° 0 mm 5 m/S 746 mmHg 57%
    15:00 +20°C° 0 mm 5 m/S 745 mmHg 57%
    16:00 +20°C° 0 mm 5 m/S 745 mmHg 58%
    17:00 +20°C° 0 mm 5 m/S 745 mmHg 58%
    18:00 +19°C° 0 mm 4 m/S 745 mmHg 64%
    19:00 +18°C° 0 mm 3 m/S 745 mmHg 71%
    20:00 +16°C° 0 mm 2 m/S 745 mmHg 77%
    21:00 +15°C° 0 mm 2 m/S 746 mmHg 81%
    22:00 +14°C° 0 mm 2 m/S 746 mmHg 85%
    23:00 +13°C° 0 mm 2 m/S 746 mmHg 89%

    übermorgen, 27 Mai, Montag

    Zeit Temperatur Niederschläge Wind Luftdruck Luftfeuchtigkeit
    00:00 +13°C° 0 mm 2 m/S 746 mmHg 91%
    01:00 +13°C° 0 mm 2 m/S 746 mmHg 92%
    02:00 +12°C° 0 mm 2 m/S 746 mmHg 94%
    03:00 +12°C° 0 mm 2 m/S 746 mmHg 94%
    04:00 +12°C° 0 mm 2 m/S 747 mmHg 94%
    05:00 +12°C° 0 mm 2 m/S 747 mmHg 94%
    06:00 +14°C° 0 mm 3 m/S 747 mmHg 85%
    07:00 +17°C° 0 mm 3 m/S 747 mmHg 76%
    08:00 +19°C° 0 mm 3 m/S 747 mmHg 67%
    09:00 +21°C° 0 mm 4 m/S 747 mmHg 62%
    10:00 +22°C° 0 mm 4 m/S 747 mmHg 57%
    11:00 +23°C° 0 mm 5 m/S 747 mmHg 52%
    12:00 +25°C° 0 mm 5 m/S 747 mmHg 50%
    13:00 +26°C° 0 mm 5 m/S 746 mmHg 49%
    14:00 +26°C° 0 mm 5 m/S 746 mmHg 48%
    15:00 +26°C° 0 mm 5 m/S 746 mmHg 51%
    16:00 +26°C° 0 mm 4 m/S 746 mmHg 53%
    17:00 +26°C° 0 mm 4 m/S 746 mmHg 56%
    18:00 +23°C° 0.1 mm 4 m/S 746 mmHg 65%
    19:00 +21°C° 0.1 mm 3 m/S 746 mmHg 75%
    20:00 +20°C° 0.1 mm 2 m/S 746 mmHg 84%
    21:00 +19°C° 0.1 mm 2 m/S 746 mmHg 87%
    22:00 +19°C° 0.1 mm 2 m/S 746 mmHg 89%
    23:00 +18°C° 0.1 mm 2 m/S 746 mmHg 92%

    28 Mai, Dienstag

    Zeit Temperatur Niederschläge Wind Luftdruck Luftfeuchtigkeit
    00:00 +18°C° 0 mm 2 m/S 746 mmHg 92%
    01:00 +18°C° 0 mm 2 m/S 746 mmHg 92%
    02:00 +17°C° 0 mm 2 m/S 746 mmHg 91%
    03:00 +17°C° 0 mm 2 m/S 746 mmHg 92%
    04:00 +17°C° 0 mm 2 m/S 746 mmHg 92%
    05:00 +17°C° 0 mm 2 m/S 746 mmHg 93%
    06:00 +18°C° 0 mm 2 m/S 746 mmHg 88%
    07:00 +20°C° 0 mm 2 m/S 746 mmHg 83%
    08:00 +21°C° 0 mm 3 m/S 746 mmHg 79%
    09:00 +24°C° 0.4 mm 3 m/S 746 mmHg 75%
    10:00 +25°C° 0.4 mm 4 m/S 745 mmHg 71%
    11:00 +27°C° 0.4 mm 4 m/S 745 mmHg 66%
    12:00 +27°C° 0.8 mm 4 m/S 745 mmHg 67%
    13:00 +27°C° 0.8 mm 5 m/S 744 mmHg 68%
    14:00 +27°C° 0.8 mm 5 m/S 744 mmHg 68%
    15:00 +27°C° 0.6 mm 5 m/S 744 mmHg 67%
    16:00 +27°C° 0.6 mm 5 m/S 744 mmHg 66%
    17:00 +27°C° 0.6 mm 5 m/S 744 mmHg 65%
    18:00 +25°C° 0 mm 4 m/S 744 mmHg 68%
    19:00 +23°C° 0 mm 4 m/S 744 mmHg 72%
    20:00 +21°C° 0 mm 4 m/S 744 mmHg 75%
    21:00 +21°C° 0 mm 4 m/S 744 mmHg 75%
    22:00 +21°C° 0 mm 4 m/S 744 mmHg 75%
    23:00 +20°C° 0 mm 5 m/S 744 mmHg 75%

    29 Mai, Mittwoch

    Zeit Temperatur Niederschläge Wind Luftdruck Luftfeuchtigkeit
    00:00 +19°C° 0 mm 4 m/S 743 mmHg 75%
    01:00 +19°C° 0 mm 4 m/S 743 mmHg 76%
    02:00 +18°C° 0 mm 4 m/S 743 mmHg 76%
    03:00 +18°C° 0 mm 4 m/S 743 mmHg 77%
    04:00 +17°C° 0 mm 4 m/S 743 mmHg 77%
    05:00 +15°C° 0 mm 4 m/S 743 mmHg 77%
    06:00 +18°C° 0 mm 4 m/S 743 mmHg 74%
    07:00 +19°C° 0 mm 5 m/S 743 mmHg 71%
    08:00 +20°C° 0 mm 5 m/S 743 mmHg 68%
    09:00 +22°C° 0 mm 5 m/S 743 mmHg 66%
    10:00 +23°C° 0 mm 5 m/S 743 mmHg 63%
    11:00 +26°C° 0 mm 5 m/S 743 mmHg 61%
    12:00 +27°C° 0.1 mm 6 m/S 743 mmHg 59%
    13:00 +28°C° 0.1 mm 6 m/S 743 mmHg 57%
    14:00 +28°C° 0.1 mm 7 m/S 743 mmHg 55%
    15:00 +27°C° 1.1 mm 6 m/S 743 mmHg 62%
    16:00 +26°C° 1.1 mm 5 m/S 743 mmHg 70%
    17:00 +23°C° 1.1 mm 4 m/S 743 mmHg 78%
    18:00 +22°C° 0.3 mm 3 m/S 743 mmHg 82%
    19:00 +21°C° 0.3 mm 3 m/S 743 mmHg 86%
    20:00 +20°C° 0.3 mm 2 m/S 744 mmHg 90%
    21:00 +19°C° 0 mm 2 m/S 744 mmHg 91%
    22:00 +18°C° 0 mm 2 m/S 744 mmHg 93%
    23:00 +18°C° 0 mm 2 m/S 745 mmHg 95%

    30 Mai, Donnerstag

    Zeit Temperatur Niederschläge Wind Luftdruck Luftfeuchtigkeit
    00:00 +17°C° 0 mm 2 m/S 745 mmHg 96%
    01:00 +17°C° 0 mm 2 m/S 745 mmHg 97%
    02:00 +17°C° 0 mm 2 m/S 746 mmHg 98%
    03:00 +16°C° 0 mm 3 m/S 746 mmHg 97%
    04:00 +16°C° 0 mm 3 m/S 747 mmHg 96%
    05:00 +16°C° 0 mm 3 m/S 747 mmHg 95%
    06:00 +16°C° 0 mm 3 m/S 748 mmHg 94%
    07:00 +16°C° 0 mm 3 m/S 748 mmHg 93%
    08:00 +16°C° 0 mm 3 m/S 749 mmHg 93%
    09:00 +17°C° 0 mm 3 m/S 749 mmHg 88%
    10:00 +17°C° 0 mm 3 m/S 750 mmHg 84%
    11:00 +18°C° 0 mm 3 m/S 750 mmHg 80%
    12:00 +19°C° 0 mm 3 m/S 750 mmHg 77%
    13:00 +19°C° 0 mm 3 m/S 750 mmHg 74%
    14:00 +20°C° 0 mm 3 m/S 751 mmHg 71%
    15:00 +20°C° 0 mm 3 m/S 751 mmHg 72%
    16:00 +20°C° 0 mm 3 m/S 751 mmHg 73%
    17:00 +20°C° 0 mm 3 m/S 751 mmHg 74%
    18:00 +18°C° 0 mm 3 m/S 751 mmHg 78%
    19:00 +17°C° 0 mm 2 m/S 751 mmHg 83%
    20:00 +16°C° 0 mm 2 m/S 751 mmHg 88%
    21:00 +16°C° 0 mm 2 m/S 751 mmHg 90%
    22:00 +15°C° 0 mm 2 m/S 751 mmHg 93%
    23:00 +14°C° 0 mm 1 m/S 751 mmHg 95%
    Mehr zeigen